Regional Weather Roundup
Issued by NWS

Home | Current Version | Previous Version | Text Only | Print | Product List | Glossary On
Versions: 1 2 3 4 5 6 7 8 9 10 11 12 13 14 15 16 17 18 19 20 21 22 23 24 25 26 27 28 29 30 31 32 33 34 35 36 37 38 39 40 41 42 43 44 45 46 47 48 49 50
000
ASUS44 KBMX 230410
RWRAL

ALABAMA REGIONAL WEATHER ROUNDUP
NATIONAL WEATHER SERVICE BIRMINGHAM AL
1100 PM CDT WED MAR 22 2017

NOTE: "FAIR" INDICATES FEW OR NO CLOUDS BELOW 12,000 FEET
WITH NO SIGNIFICANT WEATHER AND/OR OBSTRUCTIONS TO VISIBILITY.

THE REMARK "TC" DENOTES TEMPERATURE IN DEGREES CELSIUS.

ALZ001>011-014-016>018-020-230500-
NORTH ALABAMA

CITY           SKY/WX    TMP DP  RH WIND       PRES   REMARKS
MUSCLE SHOALS  CLEAR     51  24  34 E7        30.31S
HUNTSVILLE     CLEAR     49  29  46 NE6       30.30S
DECATUR        CLEAR     49  28  44 NE7       30.31S
HALEYVILLE     FAIR      51  25  36 NE7       30.29F
GADSDEN        CLEAR     48  37  65 CALM      30.29S
$$

ALZ012-013-022-023-030>036-040>044-230500-
WEST CENTRAL ALABAMA

CITY           SKY/WX    TMP DP  RH WIND       PRES   REMARKS
TUSCALOOSA     CLEAR     57  36  45 NE8       30.26R
$$

ALZ015-024>027-033>036-040>044-230500-
CENTRAL ALABAMA

CITY           SKY/WX    TMP DP  RH WIND       PRES   REMARKS
BIRMINGHAM     NOT AVBL
MONTGOMERY     CLEAR     64  37  36 N9        30.23R
SHELBY CO ARPT CLEAR     59  41  51 NE3       30.25S
MAXWELL AFB    CLEAR     62  40  44 NE7       30.23R
GREENVILLE     FAIR      64  42  44 NE8       30.21R
$$

ALZ019-021-028-029-037-038-045>048-230500-
EAST CENTRAL ALABAMA

CITY           SKY/WX    TMP DP  RH WIND       PRES   REMARKS
ANNISTON       CLEAR     49  39  68 E3        30.27R
ALEXANDER CITY CLEAR     57  32  38 CALM      30.26R
AUBURN         CLEAR     57  33  40 N12       30.26R
$$

ALZ051>064-230500-
SOUTHWEST ALABAMA

CITY           SKY/WX    TMP DP  RH WIND       PRES   REMARKS
MOBILE         CLEAR     70  55  59 NE8       30.18R
BROOKLEY FIELD CLEAR     72  61  68 N5        30.19R
EVERGREEN      CLEAR     66  51  58 N8        30.20R
$$

ALZ049-050-065>069-230500-
SOUTHEAST ALABAMA

CITY           SKY/WX    TMP DP  RH WIND       PRES   REMARKS
DOTHAN         PTCLDY    65  43  44 NE8       30.23R
OZARK          CLEAR     67  44  43 NE10      30.19R
TROY           CLEAR     63  41  44 NE8       30.22R
EUFAULA        FAIR      65  41  41 N6        30.21R
$$



USA.gov is the U.S. government's official web portal to all federal, state and local government web resources and services.